Flag for Oman Weather past 2 weeks in Salalah, Oman

Now
81 °F

Passing clouds.


Feels Like: 86 °F
Forecast: 79 / 89 °F
Wind: 5 mph from Southeast

Location: Salalah Airport

Current Time: Sep 2, 2015 at 5:33:07 AM

Latest Report: Sep 2, 2015 at 4:50 AM


Visibility: N/A

Pressure: 29.71 "Hg

Humidity: 84%

Dew point: 75 °F

Location of SalalahLocation

Historic Weather in Salalah — Graph

°F

Salalah temperature yesterday

Maximum temperature yesterday: 88 °F (at 11:50 AM)
Minimum temperature yesterday: 81 °F (at 1:50 AM)
Average temperature yesterday: 83 °F

Past Weeks' High & Low Weather Summary

 TemperatureHumidityPressure
High88 °F (Sep 1, 11:50 AM)94% (Aug 20, 3:50 AM)29.83 "Hg (Aug 20, 3:50 AM)
Low77 °F (Aug 20, 3:50 AM)62% (Sep 1, 11:50 AM)29.59 "Hg (Aug 18, 3:50 PM)
Average81 °F83%29.73 "Hg
* Reported Aug 18 7:50 AM — Sep 2 3:50 AM, Salalah, Weather by CustomWeather, © 2015

Note: Actual official high and low records may vary slightly from our data, if they occured in-between our weather recording intervals... More about our weather records

Advertising

Salalah weather history for previous 24 hours

 ConditionsComfort  
Time TempWeatherWind HumidityBarometerVisibility
3:50 AM
Wed, Sep 2
81 °FPassing clouds.2 mph79%29.68 "HgN/A
2:50 AM81 °FPassing clouds.3 mph79%29.71 "HgN/A
12:50 AM81 °FPassing clouds.3 mph79%29.71 "HgN/A
11:50 PM
Tue, Sep 1
81 °FPassing clouds.3 mph79%29.71 "HgN/A
10:50 PM81 °FPassing clouds.3 mph79%29.71 "HgN/A
9:50 PM82 °FPassing clouds.2 mph74%29.71 "HgN/A
8:50 PM82 °FPassing clouds.6 mph74%29.71 "HgN/A
7:50 PM82 °FPassing clouds.7 mph74%29.71 "HgN/A
6:50 PM82 °FPassing clouds.8 mph74%29.68 "HgN/A
5:50 PM84 °FPassing clouds.10 mph70%29.68 "HgN/A
4:50 PM86 °FPassing clouds.12 mph66%29.68 "HgN/A
3:50 PM86 °FPassing clouds.13 mph66%29.68 "HgN/A
2:50 PM88 °FPassing clouds.15 mph62%29.71 "HgN/A
1:50 PM88 °FPassing clouds.15 mph62%29.74 "HgN/A
1:00 PM88 °FPassing clouds.17 mph62%29.74 "HgN/A
11:50 AM88 °FPassing clouds.15 mph62%29.77 "HgN/A
10:50 AM86 °FPartly sunny.13 mph66%29.77 "HgN/A
9:50 AM84 °FBroken clouds.10 mph70%29.80 "HgN/A
8:50 AM82 °FBroken clouds.7 mph79%29.77 "HgN/A
6:50 AM81 °FBroken clouds.7 mph84%29.74 "HgN/A
5:50 AM81 °FPartly cloudy.8 mph84%29.74 "HgN/A
Weather by CustomWeather, © 2015

See weather overviewHow to use our weather pages